Theta_e
334 334 336 335 334 335 335 337 333 328 322 313 330 331 330 333 330 323 314 313 312 312 311 309 310 311 313 314 315 316 317 319 321 322 324 328 332 329 327 324 321 319 320
333 332 336 334 332 331 333 333 328 324 319 314 324 328 327 330 328 318 313 312 312 311 309 310 312 314 315 316 317 317 319 325 327 326 325 326 328 328 326 324 326 325 324
335 332 335 334 332 330 327 326 324 320 315 312 321 330 327 326 327 319 313 312 311 309 310 313 315 316 316 317 318 319 323 327 328 326 327 327 327 329 325 326 326 327 326
335 334 335 336 330 327 323 322 318 314 312 313 321 329 332 329 328 316 313 312 310 310 312 315 316 317 317 317 319 323 326 327 326 326 327 326 329 328 325 324 325 325 326
335 336 337 335 330 324 319 315 311 310 317 320 325 328 331 328 323 314 315 312 310 311 314 315 316 317 319 320 322 325 326 326 324 324 327 327 326 326 325 325 325 325 323
336 337 336 334 331 322 316 311 309 315 319 327 329 329 327 321 315 315 314 311 310 313 315 316 317 320 322 323 323 327 326 324 326 327 326 324 326 326 325 325 324 323 322
337 337 335 334 330 320 316 310 311 319 319 329 328 329 322 316 316 319 312 310 312 315 316 317 320 323 324 321 321 327 326 326 326 325 325 325 325 324 324 324 322 321 320
337 335 335 334 328 320 317 311 309 318 323 329 328 327 325 315 313 315 311 311 314 316 317 320 325 326 323 320 320 327 325 325 325 324 324 324 324 322 322 322 320 316 312
336 335 336 334 329 322 318 312 309 315 320 328 329 325 321 311 322 314 311 312 315 317 320 325 327 325 323 321 324 325 325 325 324 323 323 322 319 322 322 320 315 309 308
336 335 334 333 332 325 320 315 309 314 317 326 327 327 317 322 317 313 312 313 316 318 322 326 326 320 318 321 324 325 325 324 323 323 322 318 316 319 319 319 317 315 310
336 334 334 332 332 329 324 320 311 309 317 324 325 323 311 317 315 313 313 315 317 321 324 325 322 319 318 321 323 324 324 323 322 321 319 315 313 318 318 318 316 315 312
336 334 333 332 332 332 328 325 315 310 315 315 321 317 311 315 314 313 314 317 320 324 325 324 323 320 318 323 325 324 323 322 321 316 315 316 313 316 317 317 315 314 313
335 333 333 327 331 333 331 329 323 312 312 310 313 311 312 316 314 314 316 318 322 325 323 324 324 321 321 324 324 323 322 322 319 317 315 315 312 317 317 317 316 314 312
335 333 332 327 328 334 331 330 330 316 310 311 311 310 316 316 315 315 317 320 324 325 325 323 324 322 321 321 321 322 322 322 318 314 314 315 311 317 317 317 315 314 312
334 333 332 330 330 332 332 331 331 322 312 308 309 312 317 320 317 317 319 323 325 325 326 325 324 322 321 320 320 321 320 317 315 312 311 313 312 317 317 316 314 313 310
333 332 332 330 329 329 330 331 331 328 321 310 309 311 320 323 322 318 324 323 326 326 326 326 325 321 318 318 319 317 316 314 312 311 312 313 312 315 316 314 312 311 309
333 332 332 331 330 329 328 330 331 331 329 324 315 312 316 322 321 324 323 326 326 326 325 325 324 321 317 316 316 316 313 312 310 310 312 313 312 312 313 312 311 310 306
331 332 331 330 330 331 328 328 328 331 330 330 324 313 314 320 323 325 325 326 326 325 324 324 325 321 316 315 313 312 311 310 310 310 310 311 311 311 311 311 310 307 301
330 331 331 329 329 330 330 330 328 329 329 330 328 319 315 320 326 324 325 326 326 325 323 323 325 322 316 313 310 309 309 310 310 309 309 310 310 310 310 309 306 302 299
330 330 329 330 329 329 330 330 329 329 329 329 328 323 314 320 325 323 324 325 324 325 322 322 323 321 314 312 309 307 307 309 310 310 310 309 309 308 307 305 302 300 298
329 329 329 329 329 329 328 327 327 328 328 328 326 323 316 318 322 323 325 324 325 324 321 322 322 322 315 311 308 305 306 306 308 308 308 307 306 305 303 302 301 299 297
329 328 328 329 330 329 330 329 329 328 327 329 326 321 318 324 322 321 325 325 326 323 322 322 322 322 316 311 308 305 306 306 305 305 305 304 303 302 301 300 299 299 296
329 329 329 329 328 329 331 330 329 329 328 327 324 321 324 324 321 321 324 325 324 322 321 322 322 323 322 312 307 304 304 303 303 304 304 305 303 301 299 298 298 297 296
329 328 329 330 329 329 330 330 329 328 327 326 326 323 323 323 320 322 324 325 324 322 322 322 322 323 319 311 306 304 304 306 306 305 304 302 301 300 299 298 298 297 297
325 328 328 329 329 329 328 328 328 328 326 327 325 324 324 324 321 323 325 324 324 323 323 321 322 323 317 309 304 304 304 304 304 303 302 301 299 299 298 297 297 297 297
325 326 327 328 328 329 328 328 327 327 327 327 326 325 325 324 323 323 320 324 324 323 322 321 322 321 317 308 303 303 302 303 303 302 301 299 298 298 297 297 297 297 296
Wind_Speed
24 32 29 27 25 24 23 20 18 17 17 20 21 19 19 18 16 15 17 17 16 16 16 16 17 18 18 18 17 17 17 17 17 16 15 14 15 14 13 11 10 9 10
26 34 30 27 26 25 23 21 18 18 19 21 20 19 18 17 15 15 17 16 16 16 16 17 17 16 16 17 16 16 17 19 17 14 15 12 12 12 12 12 13 14 13
24 34 31 27 25 23 21 20 19 19 20 21 18 18 17 17 15 15 16 16 16 16 16 16 16 15 14 14 15 17 18 18 15 13 12 11 10 12 14 14 15 15 15
21 34 30 27 24 21 20 20 20 20 21 22 20 18 17 16 17 17 17 16 16 16 16 15 14 14 14 14 15 18 18 16 13 8 10 7 13 11 12 12 12 12 15
20 33 31 27 24 21 20 20 20 21 22 21 20 20 18 19 18 18 17 16 16 16 15 14 13 13 14 15 16 18 17 14 9 9 9 8 11 12 13 12 11 10 7
22 32 30 27 23 22 21 19 20 21 22 23 22 21 21 20 20 19 17 17 16 15 14 12 11 12 13 14 17 17 13 11 10 9 8 10 13 13 11 9 6 4 2
25 30 30 27 24 23 21 19 20 21 23 22 23 21 23 21 20 17 16 16 15 14 12 11 11 11 11 13 16 15 15 12 10 5 7 13 12 9 7 5 1 3 6
24 30 30 28 25 24 21 20 19 20 23 24 23 22 21 21 19 17 17 16 15 13 12 11 10 9 11 13 17 15 13 11 8 5 5 9 6 5 3 4 1 4 5
23 28 28 30 27 25 22 20 19 20 22 23 22 22 21 21 18 16 17 16 14 13 12 10 9 6 10 13 15 15 13 10 8 4 3 3 3 9 7 3 4 7 9
25 27 28 31 29 27 24 21 19 20 22 24 22 22 22 19 19 17 16 15 14 13 10 9 8 7 10 15 15 14 13 10 7 4 4 3 4 9 6 5 8 8 9
28 28 30 33 32 29 26 23 20 20 22 23 24 22 22 21 19 17 16 15 13 12 10 7 8 9 12 17 16 13 12 10 8 8 5 5 5 9 6 6 6 8 6
34 31 30 33 35 32 28 26 22 21 23 24 23 24 22 20 19 18 16 15 13 11 8 8 9 11 15 19 15 12 12 11 11 6 7 5 5 7 5 3 4 5 4
37 31 31 35 35 34 31 28 26 23 22 21 22 22 21 20 19 18 16 15 13 11 9 10 10 11 16 19 15 12 13 11 9 7 7 6 5 6 6 6 4 6 6
36 32 30 33 35 35 32 31 28 25 24 23 22 22 22 21 19 18 15 14 13 10 8 10 10 9 11 15 13 14 13 13 8 8 9 7 7 8 8 9 5 6 10
36 34 33 31 33 35 33 31 29 27 24 22 22 24 23 21 19 17 15 15 12 10 12 10 8 10 14 15 17 17 15 12 9 10 9 9 8 10 11 12 10 10 12
37 39 36 35 33 34 33 31 30 28 24 22 22 26 25 21 18 19 16 14 14 14 14 13 11 12 14 16 17 17 16 13 11 10 10 11 12 15 18 15 14 14 12
41 43 38 36 35 33 33 29 28 30 27 24 21 25 27 24 20 21 18 20 20 19 15 14 14 13 13 15 17 18 17 15 12 12 12 13 13 14 16 16 16 15 15
43 45 41 42 38 35 34 31 30 29 31 28 26 24 28 24 22 22 23 23 22 20 17 15 15 14 14 15 17 18 18 17 16 14 14 15 15 16 17 17 17 17 16
42 45 45 45 42 36 34 33 33 33 33 30 28 26 28 27 25 26 25 24 24 23 19 17 17 16 16 17 17 18 18 18 18 16 15 15 15 16 17 17 17 17 17
38 42 44 45 41 39 36 34 32 35 34 32 29 27 26 31 28 26 26 25 26 24 21 19 18 17 17 17 17 17 17 18 20 19 18 17 17 17 18 18 17 17 17
38 38 41 41 49 41 40 39 36 37 37 33 31 28 27 31 31 28 28 29 28 26 23 20 19 20 20 20 18 19 19 19 21 19 20 19 19 19 19 19 18 18 17
39 39 39 40 42 44 46 41 38 39 38 33 32 29 31 30 30 31 30 31 29 27 24 24 23 23 24 23 22 17 12 19 22 22 21 20 20 20 19 19 19 19 18
44 39 37 40 39 41 38 36 37 35 38 35 33 34 35 34 33 31 31 31 30 27 27 25 25 26 25 25 25 17 9 11 11 18 19 19 18 17 17 18 19 19 19
42 40 38 37 41 43 45 43 41 40 42 41 40 36 36 35 34 33 31 31 31 29 27 24 26 26 25 27 26 28 25 14 11 8 14 15 16 18 17 17 17 19 19
38 35 35 36 37 40 39 41 42 44 41 41 38 38 38 37 35 33 32 33 32 30 27 26 27 27 27 27 28 28 28 26 22 20 18 18 19 19 18 18 18 18 19
37 35 37 38 35 38 37 37 40 42 44 43 42 41 40 39 35 35 34 35 33 31 29 29 29 28 28 28 28 28 29 27 27 26 25 24 23 24 21 20 20 18 19
Wind_Direction
177 174 172 172 169 165 162 169 166 162 161 159 158 157 154 150 145 142 138 133 132 128 120 116 113 112 111 108 104 99 95 91 86 85 82 65 87 73 63 61 68 71 71
169 178 173 174 173 171 169 170 170 166 162 162 163 160 160 156 151 142 139 140 132 124 120 118 114 111 109 107 103 98 94 90 83 81 80 69 61 62 64 66 66 73 75
171 178 174 176 176 174 173 172 170 170 167 167 160 152 157 162 157 148 146 142 130 126 123 119 115 112 108 105 101 99 101 98 87 80 86 62 56 66 65 81 81 83 82
174 179 175 176 177 173 172 170 170 171 170 167 160 152 155 152 158 154 151 141 134 129 125 121 116 111 107 107 102 103 100 96 99 100 82 75 88 73 82 95 96 101 104
177 181 176 175 176 173 170 170 170 170 168 157 156 154 150 152 158 149 152 143 139 134 130 125 118 113 110 106 106 108 107 105 109 94 119 93 81 80 92 104 112 100 97
178 184 179 175 176 173 169 172 170 166 163 158 156 153 155 155 153 156 150 146 142 135 131 127 120 112 108 106 112 118 110 108 110 103 99 101 96 95 94 93 95 98 32
178 183 179 175 175 174 170 172 170 170 162 161 157 159 153 160 156 159 153 147 145 137 134 128 118 109 107 109 124 123 113 117 113 114 109 106 101 93 98 106 111 349 3
175 178 180 176 176 176 172 173 172 172 160 166 162 163 161 166 163 158 153 153 147 139 137 133 118 112 114 114 127 139 129 133 139 117 119 115 111 83 126 139 17 341 23
177 176 182 178 175 176 175 176 174 173 169 164 167 165 165 167 162 164 159 159 151 145 144 129 116 135 124 130 139 147 140 139 134 151 150 144 61 113 139 143 83 33 56
182 183 184 183 177 176 177 177 176 175 173 168 167 168 173 162 169 166 165 164 158 154 149 140 142 131 119 137 159 149 143 151 155 198 223 132 103 122 147 114 94 78 66
185 191 190 187 181 179 179 178 179 179 176 171 172 174 174 174 169 170 170 170 161 155 151 150 139 130 130 143 157 149 155 159 181 212 193 134 128 130 153 141 127 98 57
186 193 194 194 185 182 182 181 181 181 181 180 178 181 179 175 174 175 176 171 165 162 164 155 146 135 136 146 161 163 175 183 199 189 170 140 129 130 170 191 168 114 54
189 194 198 193 188 187 186 185 185 186 185 185 181 178 177 174 180 180 180 176 171 167 162 163 162 152 145 158 178 175 190 207 209 216 198 160 151 144 177 194 199 277 319
188 192 195 194 192 192 191 190 191 188 187 188 185 183 180 178 186 185 184 180 174 171 174 185 171 173 173 172 201 198 205 223 225 221 207 184 168 173 186 209 216 268 299
187 194 190 194 195 197 195 196 195 193 192 192 188 185 186 188 192 187 183 179 175 176 197 205 192 192 199 200 205 221 226 226 228 214 210 194 179 177 186 211 222 266 285
188 189 189 193 198 201 200 201 197 199 193 192 190 188 188 195 202 189 177 187 187 195 206 222 219 211 204 206 209 221 230 227 224 223 221 211 203 191 194 218 247 275 296
194 189 187 192 198 201 204 206 202 202 201 201 196 193 197 201 195 182 191 197 198 204 209 220 215 219 214 208 211 219 229 233 227 227 223 220 224 233 235 249 268 278 286
199 192 189 192 194 201 203 205 206 205 207 207 204 200 204 199 194 185 200 204 207 211 207 220 227 226 221 218 214 213 222 234 233 231 230 229 232 239 247 255 266 275 278
205 196 192 192 199 199 203 207 206 210 213 207 211 208 204 198 200 195 203 208 214 212 218 226 235 232 229 223 219 218 217 226 240 244 240 240 243 250 255 260 265 269 276
206 204 202 202 202 201 201 206 212 214 209 211 213 212 203 204 200 203 206 210 222 225 217 221 234 234 232 231 224 222 223 227 231 239 250 256 257 256 259 264 266 270 275
208 204 201 200 203 206 207 206 209 210 209 208 215 214 209 209 203 205 210 210 216 222 223 225 233 236 230 228 225 225 227 232 238 238 244 250 259 265 265 265 268 270 272
212 209 209 201 201 211 216 211 213 205 209 215 215 211 210 207 210 211 211 215 221 223 219 227 233 235 232 233 226 227 230 237 242 245 248 255 260 263 266 270 271 271 271
210 207 211 205 205 208 201 207 204 208 210 214 214 209 207 212 218 223 218 220 226 223 225 229 238 241 242 237 229 225 214 225 228 239 248 258 262 265 267 271 272 273 274
227 213 209 209 211 210 215 215 215 212 211 215 217 211 214 218 220 225 222 226 224 227 231 233 240 243 242 239 230 231 235 239 231 243 251 261 260 267 272 276 279 276 275
218 216 210 215 216 215 216 222 222 219 213 218 214 216 219 223 226 228 226 226 224 228 229 237 241 240 242 240 236 239 238 242 246 250 264 267 260 269 274 277 280 280 280
223 218 211 213 216 216 218 222 224 223 222 223 221 222 227 233 233 229 230 226 227 229 231 238 241 240 241 238 237 239 242 243 248 253 258 265 276 280 279 275 280 286 282